KESTREL-0A

Last updated on Sat Jul 19 2025 00:02:07 GMT+0000 (Coordinated Universal Time)

1 64624U 25138D 25199.48223676 .00001788 00000+0 98165-4 0 9991 2 64624 97.4366 203.6418 0015416 204.1224 155.9288 15.15322133 3282
UTC large
Height (km)
Speed (km/s)
/
Latitude / Longitude
Inclination (degrees)
Orbital Period (minutes)
Azimuth
Elevation
Range (km)
Doppler Factor

Next 0 passes for location: London (51.5072 / 0.1276)

Sorry there are no passes over London.